When you browse on this site, cookies collect data to enhance your experience and personalize the content and advertising you see.
Visit our Privacy Policy to learn more. By continuing to use the site, you agree to this use of cookies and data.
  • In Czech Republic
  • List of Countries
  • For 7 days
  • Water Temperature
  • Satellite Maps
  • Weather Map
  • Weather Widgets
  • user-avatar
    Login

    Hourly Weather Chernomorec

    Today, 23 January, Wednesday

    Time Temperature Precipitation Wind Pressure Humidity
    00:00 +5°C° 0 mm 4 mps 757 mmHg 92%
    01:00 +5°C° 0 mm 4 mps 757 mmHg 92%
    02:00 +5°C° 0 mm 4 mps 756 mmHg 91%
    03:00 +6°C° 0.6 mm 4 mps 755 mmHg 90%
    04:00 +7°C° 0.6 mm 4 mps 755 mmHg 89%
    05:00 +7°C° 0.6 mm 5 mps 754 mmHg 88%
    06:00 +7°C° 0 mm 5 mps 754 mmHg 87%
    07:00 +8°C° 0 mm 5 mps 753 mmHg 86%
    08:00 +8°C° 0 mm 5 mps 753 mmHg 86%
    09:00 +9°C° 0 mm 5 mps 753 mmHg 81%
    10:00 +11°C° 0 mm 6 mps 753 mmHg 77%
    11:00 +12°C° 0 mm 7 mps 753 mmHg 73%
    12:00 +12°C° 0 mm 7 mps 753 mmHg 71%
    13:00 +14°C° 0 mm 7 mps 752 mmHg 69%
    14:00 +14°C° 0 mm 7 mps 752 mmHg 68%
    15:00 +13°C° 0.1 mm 6 mps 752 mmHg 72%
    16:00 +13°C° 0.1 mm 6 mps 752 mmHg 75%
    17:00 +11°C° 0.1 mm 6 mps 752 mmHg 79%
    18:00 +10°C° 0 mm 5 mps 752 mmHg 80%
    19:00 +10°C° 0 mm 5 mps 752 mmHg 82%
    20:00 +10°C° 0 mm 5 mps 751 mmHg 83%
    21:00 +10°C° 0.1 mm 5 mps 751 mmHg 83%
    22:00 +10°C° 0.1 mm 5 mps 751 mmHg 83%
    23:00 +10°C° 0.1 mm 6 mps 751 mmHg 83%

    Tomorrow, 24 January, Thursday

    Time Temperature Precipitation Wind Pressure Humidity
    00:00 +9°C° 0.1 mm 6 mps 751 mmHg 84%
    01:00 +9°C° 0.1 mm 5 mps 750 mmHg 86%
    02:00 +9°C° 0.1 mm 5 mps 750 mmHg 87%
    03:00 +9°C° 0.1 mm 5 mps 750 mmHg 87%
    04:00 +8°C° 0.1 mm 5 mps 749 mmHg 87%
    05:00 +8°C° 0.1 mm 5 mps 748 mmHg 87%
    06:00 +8°C° 0.6 mm 5 mps 748 mmHg 87%
    07:00 +8°C° 0.6 mm 6 mps 748 mmHg 87%
    08:00 +8°C° 0.6 mm 6 mps 748 mmHg 87%
    09:00 +8°C° 2.2 mm 5 mps 747 mmHg 86%
    10:00 +9°C° 2.2 mm 5 mps 747 mmHg 85%
    11:00 +9°C° 2.2 mm 5 mps 747 mmHg 84%
    12:00 +9°C° 0.1 mm 5 mps 747 mmHg 81%
    13:00 +10°C° 0.1 mm 6 mps 746 mmHg 78%
    14:00 +11°C° 0.1 mm 6 mps 746 mmHg 76%
    15:00 +10°C° 0 mm 5 mps 746 mmHg 78%
    16:00 +11°C° 0 mm 4 mps 746 mmHg 81%
    17:00 +10°C° 0 mm 4 mps 746 mmHg 84%
    18:00 +10°C° 0 mm 4 mps 746 mmHg 85%
    19:00 +8°C° 0 mm 4 mps 747 mmHg 87%
    20:00 +8°C° 0 mm 4 mps 747 mmHg 89%
    21:00 +8°C° 0 mm 4 mps 747 mmHg 88%
    22:00 +8°C° 0 mm 4 mps 748 mmHg 88%
    23:00 +8°C° 0 mm 4 mps 748 mmHg 87%

    Day after tomorrow, 25 January, Friday

    Time Temperature Precipitation Wind Pressure Humidity
    00:00 +9°C° 0 mm 3 mps 749 mmHg 86%
    01:00 +9°C° 0 mm 3 mps 749 mmHg 85%
    02:00 +9°C° 0 mm 3 mps 749 mmHg 84%
    03:00 +9°C° 0 mm 3 mps 749 mmHg 85%
    04:00 +8°C° 0 mm 3 mps 749 mmHg 86%
    05:00 +8°C° 0 mm 3 mps 749 mmHg 87%
    06:00 +7°C° 0 mm 4 mps 749 mmHg 85%
    07:00 +8°C° 0 mm 4 mps 749 mmHg 83%
    08:00 +8°C° 0 mm 5 mps 749 mmHg 82%
    09:00 +8°C° 1.5 mm 5 mps 749 mmHg 82%
    10:00 +9°C° 1.5 mm 6 mps 749 mmHg 82%
    11:00 +9°C° 1.5 mm 6 mps 749 mmHg 82%
    12:00 +9°C° 0.3 mm 5 mps 749 mmHg 80%
    13:00 +10°C° 0.3 mm 5 mps 748 mmHg 79%
    14:00 +11°C° 0.3 mm 4 mps 748 mmHg 77%
    15:00 +10°C° 0 mm 5 mps 748 mmHg 79%
    16:00 +10°C° 0 mm 5 mps 748 mmHg 81%
    17:00 +9°C° 0 mm 6 mps 748 mmHg 83%
    18:00 +9°C° 0.3 mm 5 mps 747 mmHg 85%
    19:00 +9°C° 0.3 mm 5 mps 747 mmHg 88%
    20:00 +8°C° 0.3 mm 4 mps 747 mmHg 91%
    21:00 +9°C° 0.2 mm 5 mps 747 mmHg 88%
    22:00 +9°C° 0.2 mm 6 mps 746 mmHg 85%
    23:00 +9°C° 0.2 mm 7 mps 746 mmHg 83%

    26 January, Saturday

    Time Temperature Precipitation Wind Pressure Humidity
    00:00 +9°C° 0.1 mm 7 mps 746 mmHg 84%
    01:00 +9°C° 0.1 mm 6 mps 746 mmHg 85%
    02:00 +9°C° 0.1 mm 6 mps 746 mmHg 87%
    03:00 +8°C° 0 mm 5 mps 746 mmHg 88%
    04:00 +7°C° 0 mm 4 mps 746 mmHg 89%
    05:00 +8°C° 0 mm 3 mps 746 mmHg 91%
    06:00 +8°C° 0 mm 2 mps 746 mmHg 90%
    07:00 +8°C° 0 mm 2 mps 746 mmHg 89%
    08:00 +9°C° 0 mm 1 mps 746 mmHg 88%
    09:00 +10°C° 0.1 mm 1 mps 747 mmHg 85%
    10:00 +10°C° 0.1 mm 2 mps 747 mmHg 82%
    11:00 +12°C° 0.1 mm 2 mps 747 mmHg 80%
    12:00 +11°C° 0.1 mm 3 mps 747 mmHg 78%
    13:00 +11°C° 0.1 mm 3 mps 747 mmHg 77%
    14:00 +12°C° 0.1 mm 4 mps 746 mmHg 76%
    15:00 +11°C° 0.1 mm 4 mps 747 mmHg 79%
    16:00 +10°C° 0.1 mm 4 mps 747 mmHg 82%
    17:00 +10°C° 0.1 mm 3 mps 747 mmHg 84%
    18:00 +10°C° 0.2 mm 3 mps 747 mmHg 86%
    19:00 +9°C° 0.2 mm 2 mps 748 mmHg 88%
    20:00 +10°C° 0.2 mm 1 mps 748 mmHg 89%
    21:00 +9°C° 0.2 mm 2 mps 748 mmHg 90%
    22:00 +9°C° 0.2 mm 2 mps 748 mmHg 90%
    23:00 +8°C° 0.2 mm 3 mps 749 mmHg 90%

    27 January, Sunday

    Time Temperature Precipitation Wind Pressure Humidity
    00:00 +8°C° 0.7 mm 3 mps 749 mmHg 91%
    01:00 +8°C° 0.7 mm 3 mps 749 mmHg 91%
    02:00 +7°C° 0.7 mm 4 mps 749 mmHg 92%
    03:00 +7°C° 0.2 mm 4 mps 749 mmHg 91%
    04:00 +7°C° 0.2 mm 4 mps 749 mmHg 89%
    05:00 +7°C° 0.2 mm 4 mps 748 mmHg 88%
    06:00 +7°C° 0 mm 3 mps 749 mmHg 87%
    07:00 +7°C° 0 mm 3 mps 749 mmHg 87%
    08:00 +7°C° 0 mm 3 mps 749 mmHg 87%
    09:00 +7°C° 0 mm 3 mps 750 mmHg 83%
    10:00 +8°C° 0 mm 3 mps 750 mmHg 78%
    11:00 +9°C° 0 mm 3 mps 750 mmHg 74%
    12:00 +9°C° 0 mm 3 mps 750 mmHg 72%
    13:00 +10°C° 0 mm 3 mps 750 mmHg 70%
    14:00 +10°C° 0 mm 3 mps 750 mmHg 68%
    15:00 +9°C° 0 mm 2 mps 750 mmHg 71%
    16:00 +9°C° 0 mm 2 mps 750 mmHg 74%
    17:00 +8°C° 0 mm 2 mps 750 mmHg 77%
    18:00 +7°C° 0 mm 2 mps 751 mmHg 79%
    19:00 +7°C° 0 mm 2 mps 751 mmHg 82%
    20:00 +6°C° 0 mm 2 mps 751 mmHg 84%
    21:00 +6°C° 0 mm 2 mps 752 mmHg 84%
    22:00 +7°C° 0 mm 1 mps 752 mmHg 85%
    23:00 +6°C° 0 mm 1 mps 753 mmHg 85%

    28 January, Monday

    Time Temperature Precipitation Wind Pressure Humidity
    00:00 +6°C° 0 mm 1 mps 753 mmHg 86%
    01:00 +6°C° 0 mm 1 mps 753 mmHg 86%
    02:00 +6°C° 0 mm 1 mps 754 mmHg 86%
    03:00 +6°C° 0 mm 1 mps 754 mmHg 87%
    04:00 +5°C° 0 mm 1 mps 754 mmHg 87%
    05:00 +5°C° 0 mm 1 mps 754 mmHg 88%
    06:00 +5°C° 0 mm 1 mps 755 mmHg 88%
    07:00 +5°C° 0 mm 1 mps 755 mmHg 88%
    08:00 +5°C° 0 mm 1 mps 755 mmHg 89%
    09:00 +7°C° 0 mm 1 mps 756 mmHg 82%
    10:00 +8°C° 0 mm 1 mps 756 mmHg 75%
    11:00 +10°C° 0 mm 1 mps 757 mmHg 68%
    12:00 +10°C° 0 mm 2 mps 757 mmHg 65%
    13:00 +12°C° 0 mm 2 mps 757 mmHg 62%
    14:00 +13°C° 0 mm 2 mps 757 mmHg 59%
    15:00 +12°C° 0 mm 2 mps 757 mmHg 64%
    16:00 +10°C° 0 mm 2 mps 758 mmHg 69%
    17:00 +10°C° 0 mm 2 mps 758 mmHg 74%
    18:00 +9°C° 0 mm 2 mps 758 mmHg 77%
    19:00 +9°C° 0 mm 2 mps 758 mmHg 79%
    20:00 +8°C° 0 mm 3 mps 759 mmHg 82%
    21:00 +8°C° 0 mm 3 mps 759 mmHg 83%
    22:00 +8°C° 0 mm 3 mps 759 mmHg 85%
    23:00 +7°C° 0 mm 3 mps 759 mmHg 86%
    Show more